GFSNGP_sfc_rhum_045.txt.gz
RH
22 23 23 21 20 20 24 24 33 22 13 8 9 11 14 15 18 21 29 33 33 34 34 33 33 34 33 37 33 32 24 23 25 26 32 34 37 38 40 42 41 42 42 43
39 26 28 28 22 21 18 19 15 15 15 12 14 12 15 16 20 23 29 32 32 32 32 33 32 33 35 32 29 24 25 25 24 28 32 36 38 41 41 41 42 43 45 49
44 32 30 63 34 22 18 17 19 27 19 17 18 18 18 19 23 25 27 31 33 32 33 33 33 32 29 28 25 27 27 24 25 32 34 35 34 36 41 45 45 48 54 59
57 67 80 18 16 16 21 18 15 15 15 14 16 20 21 21 23 27 29 32 34 33 33 31 29 26 26 25 29 29 26 24 26 32 34 34 36 39 43 44 49 58 59 64
86 40 26 19 15 20 22 20 14 19 15 15 24 29 26 25 25 27 31 32 33 32 31 29 25 25 31 28 26 24 25 26 27 30 34 36 38 42 44 47 57 64 61 68
58 85 89 32 24 25 24 31 18 19 22 23 28 40 27 30 30 32 32 32 32 30 28 26 27 27 31 30 25 26 25 29 30 32 35 37 41 44 45 46 53 60 66 62
69 84 50 23 22 28 40 41 26 26 24 27 27 39 38 32 36 34 33 32 29 27 26 26 32 42 38 26 22 24 30 32 34 33 35 38 43 43 44 49 60 77 80 70
75 98 81 22 28 38 41 27 31 29 30 40 37 43 43 38 39 37 34 29 26 27 29 40 38 31 22 20 24 28 34 36 35 36 36 38 46 46 47 54 68 72 98 83
42 44 33 24 26 29 30 33 34 35 34 34 40 40 42 41 40 34 28 27 30 38 53 43 34 33 34 30 31 35 38 39 39 41 42 41 44 44 54 58 64 74 71 72
39 24 24 27 29 32 35 41 38 39 40 40 42 40 44 38 32 30 34 46 55 58 50 36 29 33 35 39 41 39 43 44 45 46 46 46 42 43 56 65 69 66 70 68
38 26 28 36 43 49 48 44 44 44 46 49 46 45 38 34 36 51 67 60 46 38 42 42 33 36 37 36 41 44 46 47 48 51 52 51 46 50 61 62 66 67 70 65
55 48 52 46 54 52 51 51 49 46 44 40 39 38 45 67 74 70 55 57 63 49 41 36 34 35 35 34 38 44 50 50 56 58 56 51 51 58 66 74 76 75 75 82
48 51 53 54 46 44 48 48 50 52 58 68 72 76 77 77 60 70 60 48 43 41 38 37 38 38 36 40 49 59 58 59 58 62 55 62 74 75 79 73 82 81 82 81
50 51 58 50 59 56 57 61 69 70 70 70 70 70 72 72 63 50 47 42 38 36 37 37 38 40 38 38 47 56 57 75 62 61 68 73 77 84 82 81 90 87 84 83
50 47 52 57 58 60 67 70 74 80 81 78 66 58 46 43 40 37 35 36 39 39 38 37 36 39 37 52 51 57 58 58 65 77 84 85 87 90 89 86 83 82 74 80
62 62 61 64 67 69 69 73 77 70 52 49 53 54 43 38 37 37 36 45 60 58 53 82 81 62 60 50 48 50 52 71 76 75 80 83 83 82 82 83 82 86 87 78
78 85 89 87 75 70 61 50 52 55 50 50 57 64 58 61 55 48 52 59 92 100 99 92 85 53 61 55 54 55 60 62 79 80 98 94 82 83 84 85 85 86 92 98
67 77 63 59 61 59 56 54 54 53 61 67 84 99 100 100 83 75 78 89 100 98 81 66 65 62 60 55 56 62 71 76 84 94 94 96 93 89 86 87 83 84 90 91
57 56 55 51 45 45 48 56 62 63 90 93 98 100 100 100 83 78 81 97 95 83 58 60 72 74 65 64 73 71 83 99 96 91 95 96 98 87 92 100 96 95 91 94
48 42 44 50 57 61 66 69 88 67 70 89 100 100 89 90 91 94 94 89 73 59 58 58 73 66 61 60 74 81 94 98 94 97 100 93 97 100 99 97 97 98 100 100
48 54 62 64 75 91 99 97 96 74 67 88 87 87 88 87 87 84 79 62 51 65 64 67 64 63 58 68 72 93 100 100 100 100 100 100 100 99 100 100 100 100 100 100
55 75 100 94 75 74 68 60 71 84 83 84 86 86 84 68 72 72 74 67 57 67 69 69 66 73 78 87 81 96 98 100 100 97 93 92 92 94 92 94 94 97 99 100
67 75 85 90 91 63 62 61 81 80 80 79 76 75 72 64 58 66 70 55 61 69 72 77 87 91 90 98 100 100 99 98 97 94 93 93 86 87 86 87 88 87 91 94
68 69 68 61 62 54 50 45 44 45 71 66 69 77 67 72 74 61 63 67 70 78 83 94 88 79 80 94 92 93 94 95 94 93 93 87 89 88 87 88 86 87 89 90
63 59 56 58 48 46 43 39 38 41 48 49 56 54 64 60 76 71 76 79 74 79 84 84 81 79 90 89 90 90 93 93 93 93 92 93 90 89 90 87 88 88 89 89
55 53 50 48 47 42 44 44 54 55 57 67 66 72 72 69 67 72 73 78 75 76 81 86 87 85 87 86 88 89 90 89 90 89 91 91 90 88 85 84 84 86 89 91
54 55 48 47 43 45 55 59 69 71 67 79 78 73 67 72 76 74 75 80 82 83 85 85 85 82 82 85 86 87 88 89 90 88 90 90 89 88 83 82 82 82 84 86

GFSNGP_sfc_rhum_048.txt.gz
RH
18 17 18 23 22 19 21 24 41 33 21 14 12 16 17 18 19 20 20 25 28 35 41 41 42 45 43 44 47 46 43 39 41 39 40 44 47 51 52 56 53 55 55 59
39 28 23 29 22 20 20 20 17 20 20 14 15 17 18 18 16 18 21 24 31 33 36 38 40 42 41 43 43 42 39 40 39 36 38 47 52 53 56 55 56 58 59 64
66 35 37 60 36 25 21 18 20 28 23 17 16 16 19 22 19 24 23 25 32 34 37 40 42 38 41 40 39 36 41 40 34 36 42 49 45 47 52 57 60 63 69 70
80 72 77 27 15 14 19 16 14 14 16 14 23 22 20 21 24 27 28 28 34 37 39 40 38 37 41 33 37 43 44 33 32 38 43 45 48 49 55 58 62 71 72 72
97 60 34 24 17 20 22 23 20 20 19 17 23 26 31 24 26 28 31 33 36 38 40 37 36 33 33 36 37 36 32 31 33 40 41 43 47 54 57 62 64 69 68 73
76 89 89 36 23 20 20 44 21 20 24 24 23 57 46 32 29 28 31 34 36 36 34 35 32 35 35 38 37 35 31 34 38 41 43 44 50 56 60 60 58 65 73 78
80 95 64 24 23 24 49 58 32 29 29 35 36 51 44 37 35 33 34 35 33 33 33 36 46 44 43 42 35 32 36 42 43 42 42 46 53 56 58 64 70 78 88 88
88 100 92 22 25 44 48 38 34 34 37 46 45 44 45 40 39 38 34 31 30 33 42 42 37 39 35 41 40 42 42 45 44 44 43 42 59 60 60 65 76 81 96 96
61 66 40 26 33 34 34 39 41 43 37 39 44 39 39 43 41 34 30 36 44 49 53 53 47 42 36 39 36 45 50 48 46 46 47 48 57 61 68 67 86 87 93 94
49 26 26 30 37 43 41 46 41 42 47 47 49 46 46 40 32 37 50 58 57 55 52 46 38 46 51 46 48 42 48 50 51 54 57 58 53 55 65 87 91 90 91 92
39 28 36 44 54 53 49 49 48 45 44 46 46 44 37 49 62 64 61 53 48 53 60 58 54 45 37 37 44 46 51 52 56 61 68 69 62 64 78 79 86 85 88 91
71 54 54 61 50 48 50 50 46 46 55 54 55 64 67 71 65 55 63 66 75 65 53 40 35 36 36 38 38 49 54 59 80 87 84 74 66 71 71 76 78 78 77 83
53 49 56 53 51 50 57 59 61 65 66 69 67 67 66 71 72 80 78 66 47 44 39 37 39 40 38 45 54 64 73 77 78 80 77 77 86 81 76 79 80 84 82 80
48 50 57 53 65 60 64 65 66 62 61 63 66 66 66 65 69 55 46 40 36 36 38 40 40 43 44 42 53 67 71 78 75 74 77 79 83 86 85 87 89 87 85 84
52 53 57 57 62 65 62 62 66 72 71 65 58 52 44 42 39 36 35 36 44 44 43 47 55 61 55 65 64 69 67 68 73 79 83 85 91 87 87 91 92 91 85 88
58 56 56 63 66 65 64 68 70 63 56 57 55 55 44 43 44 43 43 76 83 84 80 90 92 82 72 60 59 60 60 72 77 78 86 94 98 97 97 98 85 87 88 86
70 76 74 71 70 68 62 61 56 50 52 64 77 82 75 81 70 74 71 82 93 97 95 91 84 67 77 65 65 67 70 72 76 76 82 96 98 98 98 98 97 89 86 87
63 66 61 64 69 69 56 57 65 72 78 83 98 99 98 98 93 83 81 83 87 86 79 72 69 75 69 60 65 70 74 75 79 83 95 98 94 90 98 95 92 90 88 89
59 59 60 53 49 51 59 68 78 86 92 95 98 97 97 95 80 81 87 89 85 75 72 68 74 69 66 68 75 74 81 86 87 86 98 94 91 95 95 91 88 88 93 97
54 47 51 62 68 76 83 88 85 81 81 84 93 92 88 83 88 92 84 84 73 77 65 65 68 65 62 65 77 78 81 86 88 90 96 96 98 99 96 92 94 95 95 99
56 63 78 83 88 92 98 90 88 72 73 94 91 93 91 86 87 87 76 68 66 69 68 71 66 76 80 80 77 83 90 90 90 90 90 98 99 96 92 92 94 97 97 97
69 88 93 90 81 74 71 69 79 91 90 91 92 90 89 72 78 77 80 77 70 77 76 70 91 79 78 87 80 89 90 90 92 96 97 97 97 96 94 92 92 92 92 92
81 84 88 86 82 68 64 63 91 87 86 86 89 85 78 70 68 77 80 67 74 79 73 83 85 79 83 89 89 91 89 94 94 93 95 96 96 96 96 96 93 93 92 92
78 77 73 66 68 60 57 48 46 57 82 77 85 89 76 80 82 71 73 78 80 86 84 87 90 84 83 88 89 90 90 94 91 93 93 94 95 94 95 95 93 92 91 92
70 66 61 68 55 53 46 43 46 51 56 57 64 61 68 69 85 81 83 82 81 82 84 82 86 86 87 87 89 90 90 93 93 93 94 94 94 94 94 94 94 91 90 90
65 60 54 51 50 48 51 51 61 63 63 75 74 81 81 80 78 79 82 82 80 82 85 86 88 90 89 86 88 89 89 89 90 90 92 93 93 93 94 93 93 91 89 87
58 64 53 54 49 52 62 65 75 76 75 87 84 83 78 82 84 80 83 84 85 86 86 86 87 86 89 87 86 87 86 89 85 91 90 92 93 92 93 93 93 92 86 88

GFSNGP_sfc_rhum_051.txt.gz
RH
33 30 33 31 36 33 32 39 55 45 38 30 27 26 28 32 32 27 33 43 44 54 68 70 70 66 54 54 53 50 51 46 47 48 48 49 54 57 56 54 54 58 59 68
57 42 38 43 35 34 32 30 29 34 34 27 26 25 25 23 22 28 30 36 50 59 58 60 61 53 50 53 50 51 45 48 45 47 50 55 54 53 54 60 56 57 65 71
76 48 47 61 43 35 34 33 34 42 35 33 34 32 33 33 34 31 34 38 42 50 51 53 49 46 50 48 46 48 48 46 44 50 50 50 48 49 54 58 58 67 70 72
84 72 65 44 27 21 26 28 29 29 35 36 36 40 37 40 39 40 41 42 48 54 51 48 46 46 41 41 47 49 48 40 43 51 50 50 52 56 56 60 64 77 75 73
77 82 57 37 29 33 35 38 32 33 32 35 34 48 54 41 39 42 49 55 54 49 46 44 41 42 42 42 39 36 40 42 46 50 52 56 58 57 58 65 69 74 72 76
90 84 74 56 31 29 30 60 42 40 47 52 43 82 74 53 48 50 49 44 42 40 46 50 47 44 47 50 48 47 45 52 56 58 60 59 58 61 64 64 62 72 75 82
97 94 81 47 32 38 49 61 49 45 51 57 69 73 59 53 43 39 40 44 50 50 50 50 48 46 47 48 52 52 54 58 58 59 57 56 56 60 62 68 76 82 85 89
97 98 86 36 36 50 65 55 55 54 59 61 59 61 58 47 45 52 53 52 54 58 55 47 45 47 50 53 49 52 52 53 53 54 51 50 64 68 70 75 82 84 94 93
79 86 64 53 60 63 62 63 62 65 65 64 64 59 52 48 60 62 64 65 63 64 56 49 45 48 53 51 46 52 55 58 58 57 57 57 67 70 77 78 90 88 93 94
58 52 60 68 65 62 62 67 62 60 60 62 65 56 50 64 69 67 63 59 54 52 54 58 57 54 59 60 55 55 58 60 63 67 69 71 69 72 81 92 92 90 93 94
57 71 70 69 68 69 64 62 61 65 65 65 67 71 70 71 66 59 58 59 66 72 71 68 65 66 58 47 52 54 60 65 69 73 78 83 81 83 85 86 90 92 92 91
86 78 74 73 69 65 67 67 68 72 75 72 72 75 66 63 62 69 77 78 84 79 77 60 46 45 46 48 51 60 65 70 84 88 90 89 88 80 80 82 81 81 82 88
75 65 69 71 69 69 77 76 72 73 74 75 75 77 79 84 86 86 86 84 80 52 49 49 50 53 56 63 68 72 77 80 86 87 89 87 87 90 82 80 81 84 84 84
60 65 76 72 83 74 72 70 70 71 75 79 81 81 82 83 81 76 63 52 54 56 62 68 67 68 66 69 77 84 85 86 87 86 88 87 87 84 85 87 88 86 86 85
69 67 74 74 72 72 70 73 75 80 83 81 71 65 60 59 57 66 72 73 73 76 77 76 81 84 81 86 84 86 84 89 90 92 91 90 88 90 92 94 95 94 92 95
68 70 74 76 70 69 74 78 85 73 65 67 74 81 75 73 77 78 83 90 96 93 91 98 98 91 80 72 67 66 73 84 88 82 83 85 87 91 91 96 90 97 96 94
81 84 80 78 75 73 70 64 62 70 78 90 98 98 96 94 90 84 85 90 92 94 94 95 85 70 76 66 68 75 81 84 85 87 86 86 89 90 84 97 97 95 98 98
71 70 66 72 73 70 73 81 88 93 97 97 94 93 95 94 89 91 94 93 93 92 75 75 75 73 70 66 75 83 82 81 83 86 88 89 88 85 96 96 90 98 95 94
66 70 70 63 61 71 82 90 94 92 95 96 92 97 96 96 88 92 89 93 91 84 78 72 75 76 83 82 73 77 84 86 84 89 94 91 89 88 97 94 98 98 96 97
67 71 75 81 85 89 94 92 86 84 87 89 93 94 93 92 96 93 93 88 81 84 76 70 83 72 67 70 88 92 93 92 91 90 93 91 95 97 98 97 97 97 96 95
80 85 90 90 92 89 89 88 88 83 86 94 89 95 95 96 91 92 89 89 85 75 73 85 78 72 70 86 81 89 89 92 92 93 94 94 93 95 96 96 96 95 95 94
84 90 92 86 80 83 86 82 84 90 91 95 95 94 92 84 91 89 94 88 82 92 83 89 85 88 81 90 85 91 90 91 90 91 92 93 93 93 94 94 94 94 95 95
93 92 88 85 82 76 81 84 92 86 89 93 93 93 90 90 93 97 94 78 80 90 83 96 99 95 94 90 92 92 91 92 93 92 92 93 94 94 94 94 94 95 94 94
91 84 77 75 77 75 63 65 74 70 88 91 93 91 90 97 97 94 94 96 96 97 97 94 97 97 98 98 97 95 95 93 93 93 92 89 92 93 93 93 93 94 94 94
79 76 74 79 68 69 63 65 72 70 75 79 80 76 85 95 95 97 97 97 98 96 97 96 96 98 100 99 100 100 99 98 95 94 95 92 92 93 92 93 93 94 94 94
74 68 66 66 70 71 74 79 87 88 91 97 96 96 95 97 96 96 97 96 96 96 97 98 98 98 98 99 99 100 98 95 91 91 96 94 92 92 91 92 92 93 93 93
76 75 68 70 69 76 85 88 94 97 98 97 95 96 94 96 98 97 97 98 98 98 98 99 98 100 96 97 98 99 99 99 97 93 96 98 94 93 92 92 92 89 89 92

GFSNGP_sfc_rhum_054.txt.gz
RH
40 37 38 41 39 39 40 46 54 44 45 34 32 31 32 31 33 49 59 58 58 66 74 73 71 71 69 70 64 66 60 56 68 56 60 59 62 63 59 60 56 58 61 72
51 49 43 46 39 39 38 35 37 40 40 34 32 31 34 30 33 37 45 53 56 76 73 74 73 72 71 72 64 63 49 46 50 57 56 63 63 59 59 58 60 62 66 75
68 54 54 67 46 39 36 38 36 42 41 43 42 40 43 47 43 44 50 62 71 71 72 73 71 72 70 64 54 51 52 53 57 60 58 59 52 53 55 60 62 65 75 75
84 73 74 50 37 36 40 39 40 39 45 47 47 53 51 47 53 53 55 62 62 61 59 59 58 54 53 52 56 53 51 51 52 57 60 62 66 59 64 62 65 76 82 79
77 82 60 44 31 29 38 48 44 41 45 52 54 55 60 58 60 65 60 53 52 51 50 50 51 50 46 45 48 50 55 56 57 65 74 71 65 64 64 70 73 78 78 82
93 78 73 55 38 31 36 62 48 55 56 49 53 77 78 60 51 54 52 52 52 49 49 50 50 48 51 54 53 58 54 56 73 74 63 63 65 69 70 72 71 74 78 85
97 85 70 50 39 38 43 50 54 57 62 64 71 75 62 54 57 54 52 51 48 48 50 51 50 48 50 51 53 56 69 75 64 61 62 63 64 65 70 75 80 85 87 88
96 93 71 52 45 46 56 65 64 66 67 70 76 62 61 59 59 59 59 54 49 50 48 47 46 45 49 56 54 58 58 58 58 60 58 58 68 72 75 83 86 88 94 92
77 80 65 68 63 67 65 67 72 74 72 72 62 60 65 68 67 64 64 63 52 48 50 55 58 58 59 62 56 58 59 60 62 62 64 65 74 78 84 83 91 89 89 89
69 74 81 76 74 73 71 70 69 69 68 66 60 69 72 70 68 65 57 56 55 58 63 68 64 64 66 66 65 60 64 63 67 70 72 75 76 80 87 92 92 89 91 91
94 83 74 75 78 70 72 73 74 74 70 66 71 73 68 65 59 63 71 70 68 72 75 73 69 63 54 51 56 59 65 68 71 76 80 81 82 84 88 88 86 83 88 91
90 75 77 82 78 73 76 78 75 76 79 73 70 70 66 71 73 76 78 73 74 72 60 57 58 63 66 68 70 74 75 78 85 86 86 85 83 78 82 82 82 85 80 85
84 74 80 84 80 74 80 79 76 76 76 82 80 82 86 84 83 82 79 73 64 71 73 74 75 76 80 85 88 90 92 91 92 92 92 91 89 90 89 80 84 84 84 84
71 73 84 84 92 78 76 75 75 77 79 82 87 87 81 80 74 78 77 75 73 72 75 82 89 91 84 81 85 89 87 89 90 93 92 89 91 91 90 90 88 84 84 88
80 76 80 78 76 80 78 79 81 86 82 75 71 71 70 82 90 86 77 71 69 78 86 92 91 80 75 79 76 75 78 84 87 90 90 91 92 90 90 90 85 88 88 94
81 79 79 82 82 82 80 84 84 77 76 80 85 88 87 85 79 76 79 86 90 94 90 94 82 74 78 70 75 81 85 86 84 82 84 86 86 89 87 86 84 79 95 95
89 92 84 85 83 81 83 76 76 80 86 94 96 90 77 76 81 83 83 89 91 91 87 80 79 74 82 81 66 73 78 78 84 86 88 88 90 95 89 84 88 94 97 94
76 75 71 74 78 80 82 84 88 96 93 91 89 89 92 93 88 88 94 88 90 91 78 74 82 70 65 63 78 84 90 90 86 88 89 93 94 85 89 93 95 97 94 98
70 75 72 68 73 81 85 90 97 95 91 91 88 92 93 95 82 83 87 92 94 85 72 81 77 66 63 76 87 87 89 91 92 86 89 88 90 90 91 94 93 95 95 95
71 69 77 81 83 86 87 84 85 82 79 81 90 91 88 94 96 92 92 93 76 73 75 74 66 64 65 73 88 84 92 95 89 90 91 92 93 92 92 90 92 93 94 95
84 85 90 92 94 90 85 85 84 77 70 89 90 92 94 95 93 95 93 91 75 81 78 80 77 74 69 83 82 92 94 94 92 95 95 95 93 92 93 92 91 92 94 94
84 90 91 87 83 83 81 74 80 89 89 91 92 93 94 88 95 97 96 86 75 96 91 87 85 94 85 97 89 98 94 93 93 95 95 94 93 94 94 92 93 92 93 94
85 83 83 84 81 78 76 75 89 89 90 91 92 93 94 94 94 97 97 80 86 96 95 100 100 100 98 99 100 100 100 100 100 98 99 96 95 95 94 93 93 93 93 93
87 82 79 72 80 78 72 69 68 76 90 90 92 94 92 97 98 96 94 99 100 100 100 99 100 100 100 100 100 100 100 100 100 100 98 100 99 95 94 94 93 92 92 91
79 77 70 75 64 70 73 70 75 79 83 74 78 78 92 92 95 98 98 98 100 99 98 100 100 100 100 100 100 100 100 100 100 100 100 100 98 96 95 95 94 94 92 91
76 74 71 68 72 76 81 80 89 95 92 98 95 99 98 98 96 96 98 98 98 99 99 100 100 100 100 100 100 100 100 98 99 100 100 100 99 96 97 96 96 94 93 93
71 74 74 78 76 83 86 86 95 98 98 96 95 97 97 99 99 98 100 100 100 100 100 100 100 100 100 100 100 100 100 100 100 100 100 100 100 98 97 97 97 95 94 94